Regional Weather Roundup
Issued by NWS

Home | Current Version | Previous Version | Graphics & Text | Print | Product List | Glossary On
Versions: 1 2 3 4 5 6 7 8 9 10 11 12 13 14 15 16 17 18 19 20 21 22 23 24 25 26 27 28 29 30 31 32 33 34 35 36 37 38 39 40 41 42 43 44 45 46 47 48 49 50
153
ASUS43 KMPX 271810
RWRMN
WEATHER ROUNDUP FOR MINNESOTA
NATIONAL WEATHER SERVICE TWIN CITIES/CHANHASSEN MN
100 PM CDT SUN MAY 27 2018


NOTE: "FAIR" INDICATES FEW OR NO CLOUDS BELOW 12,000 FEET WITH NO
SIGNIFICANT WEATHER AND/OR OBSTRUCTIONS TO VISIBILITY. N/A MEANS
CURRENT SKY AND/OR WEATHER CONDITIONS ARE NOT AVAILABLE.

MNZ060>063-068>070-271900-
   Twin Cities Metro

CITY           SKY/WX    TMP DP  RH WIND       PRES   REMARKS
TWIN CITIES    CLOUDY    88  58  36 NE12      29.85F
6HR MIN TEMP:  71; 6HR MAX TEMP:  90;

ST PAUL        FAIR      87  60  40 E9        29.84F
CRYSTAL        FAIR      87  56  34 NW15      29.90R
BLAINE         CLOUDY    86  57  37 E13       29.82F
LAKEVILLE      FAIR      91  63  38 N7        29.86S HX  92
EDEN PRAIRIE   FAIR      87  59  38 NE5       29.87R
6HR MIN TEMP:  67; 6HR MAX TEMP:  88;

SOUTH ST PAUL  FAIR      87  57  35 NE7       29.84F
LAKE ELMO      FAIR      86  63  45 E9        29.86F
$$
MNZ001>005-007-008-013>017-022>024-027-028-271900-
   Northwest Minnesota

CITY           SKY/WX    TMP DP  RH WIND       PRES   REMARKS
BEMIDJI        FAIR      73  60  63 CALM      29.82S
HALLOCK        FAIR      75  64  69 N6        29.86R
ROSEAU         FAIR      75  64  69 N10       29.86R
WARROAD        FAIR      70  64  83 NE6       29.88R
THIEF RVR FALL FAIR      75  60  59 NW10      29.87R
CROOKSTON      FAIR      75  63  64 N14       29.82F
FOSSTON        FAIR      75  61  60 S7        29.82R
DETROIT LAKES  FAIR      75  57  53 W14G21    29.85R
MOORHEAD       FAIR      75  59  57 SE12G26   29.78F
PARK RAPIDS    FAIR      69  63  81 SE7       29.83S
MAHNOMEN       FAIR      76  58  53 S9G16     29.78S
$$
MNZ006-009>011-018-025>026-271900-
   North Central Minnesota

CITY           SKY/WX    TMP DP  RH WIND       PRES   REMARKS
BAUDETTE         N/A    N/A N/A N/A MISG      29.84R
FLAG ISLAND    PTSUNNY   66  61  82 CALM      29.86R
INTL FALLS     FAIR      79  60  52 CALM      29.83S
6HR MIN TEMP:  58; 6HR MAX TEMP:  80;

WASKISH        FAIR      73  63  68 CALM      29.83R
BIG FORK       FAIR      75  59  57 CALM      29.82F
LONGVILLE      FAIR      70  63  78 S12       29.82F
GRAND RAPIDS   FAIR      71  59  65 E5        29.79F
ORR            FAIR      79  57  47 CALM      29.82R
COOK           FAIR      77  61  57 CALM      29.84R
WALKER         FAIR      69  60  72 S3        29.81R
$$
MNZ012-019>021-037-271900-
   Northeast Minnesota

CITY           SKY/WX    TMP DP  RH WIND       PRES   REMARKS
DULUTH         FAIR      83  58  42 W15G22    29.90R
6HR MIN TEMP:  62; 6HR MAX TEMP:  86;

ELY            FAIR      79  54  41 W8G21     29.85F
HIBBING        FAIR      75  60  59 S3        29.83F
EVELETH        FAIR      77  61  57 SW7       29.86F
DULUTH HARBOR  FAIR      66  61  82 CALM      29.87S
TWO HARBORS    FAIR      82  61  47 W8        29.86R
SILVER BAY     FAIR      88  55  33 SW8       29.84S
GRAND MARAIS     N/A     43  39  86 CALM      29.87S
G MARAIS ARPRT FAIR      79  52  38 SW8       29.89R
$$
MNZ029>031-032-039>041-046>048-054>057-064-271900-
   West Central Minnesota

CITY           SKY/WX    TMP DP  RH WIND       PRES   REMARKS
FERGUS FALLS   FAIR      79  61  53 SE13      29.76S
WHEATON        CLOUDY    75  64  69 E16       29.82F
MORRIS         CLOUDY    75  66  73 E20       29.81F
ALEXANDRIA     FAIR      77  61  57 E13       29.87S
ELBOW LAKE     FAIR      74  62  64 SE20      29.82F
WADENA         FAIR      72  63  73 SE10      29.83F
GLENWOOD       FAIR      73  63  68 E10       29.86S
APPLETON       CLOUDY    79  61  53 E14       29.82S
BENSON         CLOUDY    75  61  60 E10G16    29.85S
ORTONVILLE     CLOUDY    81  57  44 SE16      29.83S
MADISON        PTSUNNY   88  61  40 E14       29.82F
WILLMAR        FAIR      75  61  60 NE14G20   29.88F
$$
MNZ033>034-036-042>043-049>051-058-059-271900-
   Central Minnesota

CITY           SKY/WX    TMP DP  RH WIND       PRES   REMARKS
ST CLOUD       FAIR      70  57  63 NE10G26   29.82F
6HR MIN TEMP:  62; 6HR MAX TEMP:  79; 6HR PCP: TRACE;

SAUK CENTRE    FAIR      71  61  70 E7        29.86R
PAYNESVILLE    FAIR      73  60  63 E12       29.87F
AITKIN         FAIR      68  59  73 CALM      29.85F
PINE RIVER     FAIR      66  59  77 SE9       29.88F
BRAINERD       FAIR      68  61  78 S5        29.87F
STAPLES        FAIR      70  61  73 E7        29.84F
LONG PRAIRIE   FAIR      68  61  77 NE6       29.86R
LITTLE FALLS   FAIR      64  61  88 E6        29.85F
LITCHFIELD     FAIR      81  59  47 NE10      29.88F
BUFFALO        FAIR      83  52  33 N12G22    29.90R
MAPLE LAKE     FAIR      80  57  45 N14G22    29.91F
HUTCHINSON     PTSUNNY   81  61  49 NE9G25    29.89R
$$
MNZ037-044-045-052-053-271900-
   East Central Minnesota

CITY           SKY/WX    TMP DP  RH WIND       PRES   REMARKS
PRINCETON      FAIR      75  57  53 W7G17     29.94R
MORA           RAIN      70  57  64 N5G23     29.91S
CAMBRIDGE      FAIR      81  61  50 N12G23    29.89R
RUSH CITY      FAIR      80  55  42 NW16G24   29.91R
MOOSE LAKE     FAIR      77  55  47 NW10G17   29.92R
HINCKLEY       LGT RAIN  77  59  53 NW15      29.93R
CLOQUET        FAIR      82  48  30 W13G28    29.91S
MCGREGOR       FAIR      72  59  64 NE3       29.85F
$$
MNZ071>073-080-081-089-090-097-098-271900-
   Southwest Minnesota

CITY           SKY/WX    TMP DP  RH WIND       PRES   REMARKS
MONTEVIDEO     CLOUDY    84  59  42 E17G24    29.83R
CANBY          CLOUDY    88  55  32 SE10      29.83F
MARSHALL       CLOUDY    90  60  36 E17       29.83F
REDWOOD FALLS  CLOUDY    89  59  36 E9        29.84S
OLIVIA         CLOUDY    82  61  47 NE16      29.85F
PIPESTONE      SUNNY     93  55  27 CALM      29.85F HX  91
WINDOM         CLOUDY    95  57  28 SE8       29.84F HX  94
WORTHINGTON      N/A     96  54  24 S7        29.86S HX  94
JACKSON        CLOUDY    93  57  29 SE5       29.86F HX  92
TRACY          CLOUDY    92  59  33 E12G17    29.84F HX  91
SLAYTON        CLOUDY    95  52  23 W7        29.87R HX  92
$$
MNZ065>067-074>077-082>085-091>093-271900-
   South Central Minnesota

CITY           SKY/WX    TMP DP  RH WIND       PRES   REMARKS
MANKATO        FAIR      92  62  36 N15       29.86F HX  92
NEW ULM        CLOUDY    90  54  29 E8        29.85F
ST JAMES       CLOUDY    97  52  21 E7        29.84F HX  94
FAIRMONT       MOSUNNY   95  54  25 SE7       29.85F HX  93
GLENCOE        FAIR      85  60  42 NE6       29.89R
FARIBAULT      FAIR      91  55  29 CALM      29.87S
OWATONNA       FAIR      91  55  29 N3        29.87S
WASECA         FAIR      91  54  27 E8        29.88S
ALBERT LEA     FAIR      93  41  16 NE7       29.87S
$$
MNZ078>079-086>088-094>096-271900-
   Southeast Minnesota

CITY           SKY/WX    TMP DP  RH WIND       PRES   REMARKS
ROCHESTER      FAIR      90  59  35 E7        29.89F
6HR MIN TEMP:  67; 6HR MAX TEMP:  91;

RED WING       FAIR      90  61  37 SE3       29.85F
STANTON        FAIR      91  59  34 NE6       29.85S HX  90
DODGE CENTER   FAIR      91  45  19 CALM      29.88F
WINONA         FAIR      90  63  40 NE3       29.87S HX  90
AUSTIN         FAIR      93  50  22 CALM      29.87F HX  90
PRESTON        FAIR      91  58  33 NE8       29.90F
$$
ABBREVIATIONS USED IN REMARKS
   TC - TEMPERATURES IN CELSIUS
  WCI - WIND CHILL INDEX
   HX - HEAT INDEX
  VSB - VISIBILITY
$$




USA.gov is the U.S. government's official web portal to all federal, state and local government web resources and services.